Location: Aranbee
(34.0885°N, 118.2342°W)
Time: 08:14:52
(UTC+00:00)

Courier 1B Rocket - Pass Details

Date: 30 November 2020
Orbit: 920 x 1202 km, 28.2° (Epoch: 27 January)

Event Time Altitude Azimuth Distance (km) Brightness Sun altitude
Rises 11:41:56 0° 227° (SW) 4,028 - -36.3°
Reaches altitude 10° 11:45:04 10° 217° (SW) 3,093 - -35.6°
Exits shadow 11:50:01 29° 181° (S) 2,032 6.6 -34.6°
Maximum altitude 11:51:43 32° 158° (SSE) 1,938 6.6 -34.3°
Drops below altitude 10° 11:58:24 10° 99° (E) 3,121 8.5 -32.9°
Sets 12:01:34 0° 90° (E) 4,070 9.3 -32.2°
